Вернуться в каталог

THOR ABLESTAR DEB

АктивенLEO
NORAD 131·DEBRIS·🇺🇸 United States

Запущен Jun 29, 1961 с Cape Canaveral Space Force Station

Loading…

Ближайшие Пролёты (ближайшие 24 часа)

TLE

СвежийSource: Space-Track

Эпоха: Sep 7, 2026, 00:14 UTC

1 00131U 61015R   26250.00997873  .00000046  00000-0  80458-4 0  9995
2 00131  66.7328 259.5303 0078613   7.0351 353.1816 14.01809311314932

Отслеживайте THOR ABLESTAR DEB в реальном времени с AllMySat

Download on the App Store